Flinterbirka — PHFQ — position and weather

sailwx.info

Track history (hours):
 
Tides and Currents Weather Stations Pressure Air Temp Water Temp Dewpoint Dewpoint Depression Visibility Wind Speed Wind Dir Waves Ship Positions

Flinterbirka

Last reported at 2014-Jul-27 02:07 UTC. Time now 2014-Jul-28 18:36 UTC.
Position N 35°60' W 006°40'.

Length 83 m; draft 5.6 m.

Type: Cargo ship. MMSI: 246525000.

Date/timePositionNaut miles runAvg speedWind from/ knotsBaromVisibWave heightAir tempDewpointWater temp
2014-Jul-27 02:07N 35°60' W 006°40'5710.2
2014-Jul-26 20:33N 36°15' W 007°48'1210.5
2014-Jul-26 19:24N 36°18' W 008°02'1410.4
2014-Jul-26 18:06N 36°21' W 008°19'610.8
2014-Jul-26 17:33N 36°23' W 008°26'1310.9
2014-Jul-26 16:19N 36°26' W 008°42'1210.9
2014-Jul-26 15:12N 36°30' W 008°56'58 9.8
2014-Jul-26 09:19N 37°15' W 009°40'1110.9
2014-Jul-26 08:18N 37°26' W 009°44'1111.2
2014-Jul-26 07:21N 37°36' W 009°47'910.8
2014-Jul-26 06:33N 37°45' W 009°50'1110.7
2014-Jul-26 05:33N 37°55' W 009°53'1110.7
2014-Jul-26 04:31N 38°06' W 009°57'4510.5
2014-Jul-26 00:12N 38°51' W 010°06'  
2014-Jul-23 16:25N 47°03' W 007°16'23110.5
2014-Jul-22 18:24N 50°19' W 004°10'3 0.1
2014-Jul-21 16:20N 50°22' W 004°08'0 0.0
2014-Jul-20 08:34N 50°22' W 004°08'0 0.0
2014-Jul-20 07:32N 50°22' W 004°08'0 0.0
2014-Jul-20 06:32N 50°22' W 004°08'0 0.0
2014-Jul-20 05:31N 50°22' W 004°08'0 0.0
2014-Jul-20 04:31N 50°22' W 004°08'0 0.0
2014-Jul-20 03:33N 50°22' W 004°08'0 0.0
2014-Jul-20 02:33N 50°22' W 004°08'0 0.0
2014-Jul-20 01:32N 50°22' W 004°08'0 0.0
2014-Jul-20 00:32N 50°22' W 004°08'0 0.0
2014-Jul-19 23:32N 50°22' W 004°08'0 0.0
2014-Jul-19 22:31N 50°22' W 004°08'0 0.0
2014-Jul-19 21:31N 50°22' W 004°08'0 0.0
2014-Jul-19 20:33N 50°22' W 004°08'0 0.0
2014-Jul-19 19:30N 50°22' W 004°08'0 0.0
2014-Jul-19 18:33N 50°22' W 004°08'0 0.2
2014-Jul-19 17:33N 50°22' W 004°08'13410.3
2014-Jul-19 04:34N 50°29' W 000°38'20 9.6
2014-Jul-19 02:27N 50°32' W 000°06'9 8.5
2014-Jul-19 01:27N 50°34' E 000°07'11 8.7
2014-Jul-19 00:10N 50°37' E 000°24'610.0
2014-Jul-18 23:33N 50°38' E 000°33'1111.1
2014-Jul-18 22:34N 50°44' E 000°48'2611.0
2014-Jul-18 20:11N 51°00' E 001°20'6 9.3
2014-Jul-18 19:34N 51°04' E 001°27'9 8.7
2014-Jul-18 18:34N 51°10' E 001°38'8 8.0
2014-Jul-18 17:33N 51°16' E 001°46'9 8.6
2014-Jul-18 16:33N 51°22' E 001°55'9 8.4
2014-Jul-18 15:28N 51°22' E 002°10'10 9.8
2014-Jul-18 14:28N 51°22' E 002°25'1011.3
2014-Jul-18 13:33N 51°22' E 002°42'1211.6
2014-Jul-18 12:33N 51°22' E 003°00'1212.0
2014-Jul-18 11:32N 51°24' E 003°20'1212.6
2014-Jul-18 10:33N 51°25' E 003°39'1110.9
2014-Jul-18 09:33N 51°24' E 003°57'5 4.6
2014-Jul-18 08:34N 51°28' E 004°00'0 0.2
2014-Jul-18 07:31N 51°27' E 004°00'0 0.0
2014-Jul-18 06:33N 51°27' E 004°00'0 0.1
2014-Jul-18 05:33N 51°28' E 004°00'0 0.0
2014-Jul-18 04:34N 51°28' E 004°00'0 0.0
2014-Jul-18 03:34N 51°28' E 004°00'0 0.0
2014-Jul-18 02:33N 51°28' E 004°00'0 0.0
2014-Jul-18 01:34N 51°28' E 004°00'0 0.0
2014-Jul-18 00:34N 51°28' E 004°00'0 0.0
2014-Jul-17 23:33N 51°28' E 004°00'0 0.0
2014-Jul-17 22:33N 51°28' E 004°00'0 0.0
2014-Jul-17 21:33N 51°28' E 004°00'0 0.0
2014-Jul-17 20:33N 51°28' E 004°00'0 0.0
2014-Jul-17 19:33N 51°28' E 004°00'0 0.0
2014-Jul-17 18:33N 51°28' E 004°00'0 0.0
2014-Jul-17 17:33N 51°28' E 004°00'0 0.0
2014-Jul-17 16:34N 51°28' E 004°00'0 0.0
2014-Jul-17 15:34N 51°28' E 004°00'0 0.0
2014-Jul-17 14:34N 51°28' E 004°00'0 0.1
2014-Jul-17 13:33N 51°27' E 004°00'0 0.0
2014-Jul-17 12:34N 51°27' E 004°00'0 0.0
2014-Jul-17 11:34N 51°27' E 004°00'0 0.0
2014-Jul-17 10:33N 51°27' E 004°00'0 0.0
2014-Jul-17 09:33N 51°27' E 004°00'0 0.0
2014-Jul-17 08:33N 51°27' E 004°00'0 0.0
2014-Jul-17 07:34N 51°27' E 004°00'0 0.0
2014-Jul-17 06:34N 51°27' E 004°00'0 0.0
2014-Jul-17 05:34N 51°27' E 004°00'0 0.0
2014-Jul-17 04:34N 51°27' E 004°00'0 0.0
2014-Jul-17 03:34N 51°27' E 004°00'0 0.0
2014-Jul-17 02:34N 51°27' E 004°00'  
Track history (hours):
 
Tides and Currents Weather Stations Pressure Air Temp Water Temp Dewpoint Dewpoint Depression Visibility Wind Speed Wind Dir Waves Ship Positions

Flinterbirka

Last reported at 2014-Jul-27 02:07 UTC. Time now 2014-Jul-28 18:36 UTC.
Position N 35°60' W 006°40'.

Length 83 m; draft 5.6 m.

Type: Cargo ship. MMSI: 246525000.

Date/timePositionNaut miles runAvg speedWind from/ knotsBaromVisibWave heightAir tempDewpointWater temp
2014-Jul-27 02:07N 35°60' W 006°40'5710.2
2014-Jul-26 20:33N 36°15' W 007°48'1210.5
2014-Jul-26 19:24N 36°18' W 008°02'1410.4
2014-Jul-26 18:06N 36°21' W 008°19'610.8
2014-Jul-26 17:33N 36°23' W 008°26'1310.9
2014-Jul-26 16:19N 36°26' W 008°42'1210.9
2014-Jul-26 15:12N 36°30' W 008°56'58 9.8
2014-Jul-26 09:19N 37°15' W 009°40'1110.9
2014-Jul-26 08:18N 37°26' W 009°44'1111.2
2014-Jul-26 07:21N 37°36' W 009°47'910.8
2014-Jul-26 06:33N 37°45' W 009°50'1110.7
2014-Jul-26 05:33N 37°55' W 009°53'1110.7
2014-Jul-26 04:31N 38°06' W 009°57'4510.5
2014-Jul-26 00:12N 38°51' W 010°06'  
2014-Jul-23 16:25N 47°03' W 007°16'23110.5
2014-Jul-22 18:24N 50°19' W 004°10'3 0.1
2014-Jul-21 16:20N 50°22' W 004°08'0 0.0
2014-Jul-20 08:34N 50°22' W 004°08'0 0.0
2014-Jul-20 07:32N 50°22' W 004°08'0 0.0
2014-Jul-20 06:32N 50°22' W 004°08'0 0.0
2014-Jul-20 05:31N 50°22' W 004°08'0 0.0
2014-Jul-20 04:31N 50°22' W 004°08'0 0.0
2014-Jul-20 03:33N 50°22' W 004°08'0 0.0
2014-Jul-20 02:33N 50°22' W 004°08'0 0.0
2014-Jul-20 01:32N 50°22' W 004°08'0 0.0
2014-Jul-20 00:32N 50°22' W 004°08'0 0.0
2014-Jul-19 23:32N 50°22' W 004°08'0 0.0
2014-Jul-19 22:31N 50°22' W 004°08'0 0.0
2014-Jul-19 21:31N 50°22' W 004°08'0 0.0
2014-Jul-19 20:33N 50°22' W 004°08'0 0.0
2014-Jul-19 19:30N 50°22' W 004°08'0 0.0
2014-Jul-19 18:33N 50°22' W 004°08'0 0.2
2014-Jul-19 17:33N 50°22' W 004°08'13410.3
2014-Jul-19 04:34N 50°29' W 000°38'20 9.6
2014-Jul-19 02:27N 50°32' W 000°06'9 8.5
2014-Jul-19 01:27N 50°34' E 000°07'11 8.7
2014-Jul-19 00:10N 50°37' E 000°24'610.0
2014-Jul-18 23:33N 50°38' E 000°33'1111.1
2014-Jul-18 22:34N 50°44' E 000°48'2611.0
2014-Jul-18 20:11N 51°00' E 001°20'6 9.3
2014-Jul-18 19:34N 51°04' E 001°27'9 8.7
2014-Jul-18 18:34N 51°10' E 001°38'8 8.0
2014-Jul-18 17:33N 51°16' E 001°46'9 8.6
2014-Jul-18 16:33N 51°22' E 001°55'9 8.4
2014-Jul-18 15:28N 51°22' E 002°10'10 9.8
2014-Jul-18 14:28N 51°22' E 002°25'1011.3
2014-Jul-18 13:33N 51°22' E 002°42'1211.6
2014-Jul-18 12:33N 51°22' E 003°00'1212.0
2014-Jul-18 11:32N 51°24' E 003°20'1212.6
2014-Jul-18 10:33N 51°25' E 003°39'1110.9
2014-Jul-18 09:33N 51°24' E 003°57'5 4.6
2014-Jul-18 08:34N 51°28' E 004°00'0 0.2
2014-Jul-18 07:31N 51°27' E 004°00'0 0.0
2014-Jul-18 06:33N 51°27' E 004°00'0 0.1
2014-Jul-18 05:33N 51°28' E 004°00'0 0.0
2014-Jul-18 04:34N 51°28' E 004°00'0 0.0
2014-Jul-18 03:34N 51°28' E 004°00'0 0.0
2014-Jul-18 02:33N 51°28' E 004°00'0 0.0
2014-Jul-18 01:34N 51°28' E 004°00'0 0.0
2014-Jul-18 00:34N 51°28' E 004°00'0 0.0
2014-Jul-17 23:33N 51°28' E 004°00'0 0.0
2014-Jul-17 22:33N 51°28' E 004°00'0 0.0
2014-Jul-17 21:33N 51°28' E 004°00'0 0.0
2014-Jul-17 20:33N 51°28' E 004°00'0 0.0
2014-Jul-17 19:33N 51°28' E 004°00'0 0.0
2014-Jul-17 18:33N 51°28' E 004°00'0 0.0
2014-Jul-17 17:33N 51°28' E 004°00'0 0.0
2014-Jul-17 16:34N 51°28' E 004°00'0 0.0
2014-Jul-17 15:34N 51°28' E 004°00'0 0.0
2014-Jul-17 14:34N 51°28' E 004°00'0 0.1
2014-Jul-17 13:33N 51°27' E 004°00'0 0.0
2014-Jul-17 12:34N 51°27' E 004°00'0 0.0
2014-Jul-17 11:34N 51°27' E 004°00'0 0.0
2014-Jul-17 10:33N 51°27' E 004°00'0 0.0
2014-Jul-17 09:33N 51°27' E 004°00'0 0.0
2014-Jul-17 08:33N 51°27' E 004°00'0 0.0
2014-Jul-17 07:34N 51°27' E 004°00'0 0.0
2014-Jul-17 06:34N 51°27' E 004°00'0 0.0
2014-Jul-17 05:34N 51°27' E 004°00'0 0.0
2014-Jul-17 04:34N 51°27' E 004°00'0 0.0
2014-Jul-17 03:34N 51°27' E 004°00'0 0.0
2014-Jul-17 02:34N 51°27' E 004°00'  

Dump ship's entire track history